Location: Doschendorf
(50.0069°N, 11.0602°E)
Time: 10:15:45
(UTC+00:00)

CZ-4 R/B - Pass Details

Date: 17 November 2019
Orbit: 529 x 601 km, 97.8° (Epoch: 05 December)

Event Time Altitude Azimuth Distance (km) Brightness Sun altitude
Rises 16:55:52 0° 149° (SSE) 2,812 4.8 -13.7°
Reaches altitude 10° 16:58:05 10° 144° (SE) 1,906 3.8 -14.1°
Maximum altitude 17:02:04 47° 70° (ENE) 772 1.6 -14.7°
Drops below altitude 10° 17:05:59 10° 357° (N) 1,881 3.9 -15.3°
Sets 17:08:09 0° 352° (N) 2,771 4.9 -15.6°
